Temp
11 9 9 9 10 12 12 14 15 15 17 17 16 17 18 19 20 19 20 19 19 19 19 19 19 20 20 19 18 19 18 18 17 17 18 19 18 18 19 19 19 19 18 18
8 8 11 11 12 12 12 13 13 16 17 17 17 17 18 18 19 20 20 18 18 18 20 20 20 19 19 20 20 19 20 19 18 18 17 17 18 18 18 20 19 19 18 18
8 9 11 12 12 12 12 12 14 15 16 17 18 16 18 16 15 17 19 21 18 19 20 20 21 21 21 21 22 23 21 22 18 21 17 13 16 18 19 19 18 18 18 18
8 11 11 12 13 13 12 14 15 16 15 14 17 14 17 17 13 13 14 17 18 18 19 20 21 21 22 23 23 24 20 20 17 18 19 15 15 16 19 18 19 18 18 16
10 11 12 11 13 14 14 16 15 16 15 15 15 14 14 14 14 14 14 15 18 18 18 21 22 23 24 22 20 18 18 17 18 18 17 16 16 16 16 17 16 18 17 15
9 11 11 12 15 15 16 16 15 13 12 12 14 15 14 15 16 13 14 14 15 16 18 19 19 20 21 20 18 18 18 19 18 16 16 16 15 15 15 16 17 18 15 15
11 11 12 14 14 15 14 12 11 12 12 11 13 14 14 17 16 16 14 14 16 17 19 19 19 18 19 18 17 17 18 19 19 18 15 16 16 15 15 15 17 16 16 16
10 11 12 14 14 13 14 12 9 13 11 12 15 15 16 16 18 19 17 16 16 16 18 18 18 18 18 17 17 16 17 20 18 17 16 16 15 14 15 15 15 15 15 15
10 11 13 14 14 15 13 13 13 12 13 13 13 15 17 17 17 15 16 16 16 17 16 17 18 18 17 18 18 16 17 16 15 15 16 16 16 14 15 14 14 14 14 15
12 11 14 14 15 15 14 13 13 10 12 14 13 14 15 17 17 15 13 14 16 17 17 17 18 16 17 16 16 16 16 16 16 16 14 15 15 15 14 13 13 14 15 15
11 11 13 14 13 13 13 12 11 10 10 11 11 13 15 14 16 15 13 16 18 18 19 18 17 16 16 15 16 16 17 15 16 16 16 15 15 14 13 12 13 14 14 13
12 11 11 14 15 15 14 13 11 10 11 10 11 11 14 12 12 14 17 16 19 19 18 19 15 15 16 16 16 16 16 15 16 16 15 15 15 13 13 13 13 13 12 13
11 12 11 14 14 15 15 14 13 11 10 11 11 12 15 13 12 12 16 17 16 15 17 16 15 16 17 17 16 16 16 15 14 13 13 13 12 12 13 13 13 12 13 13
13 11 12 11 13 13 14 15 14 12 10 12 12 13 13 14 13 12 14 16 15 15 16 16 17 17 17 17 17 14 13 13 12 12 12 13 13 13 13 13 13 13 13 13
9 11 11 15 14 15 15 16 14 15 14 14 13 13 13 12 12 13 11 12 13 13 13 16 15 14 15 13 14 12 12 12 12 13 13 13 13 13 13 13 12 13 13 13
8 11 11 13 14 16 16 17 16 16 13 12 11 12 12 12 12 11 10 11 11 11 11 12 13 12 12 14 12 12 12 12 12 12 12 12 12 12 12 12 13 13 13 12
8 9 9 13 13 14 14 15 15 14 14 13 12 12 11 10 9 6 8 9 10 9 10 10 11 10 10 11 12 12 12 12 12 12 12 12 11 12 12 12 12 11 11 10
9 10 8 10 12 14 15 15 15 14 14 12 11 11 10 8 6 7 6 6 7 9 10 10 11 11 10 11 11 13 11 11 11 11 10 10 12 11 10 10 10 9 8 7
8 10 10 9 10 13 14 14 14 14 13 12 12 11 9 7 10 8 6 5 6 8 8 8 9 9 8 8 9 9 9 9 10 10 9 9 10 10 10 10 9 8 8 6
8 9 10 9 11 12 12 13 14 13 12 12 11 10 8 9 10 7 5 5 5 7 8 8 8 8 8 7 8 9 9 9 9 8 9 9 9 9 9 7 6 5 3 2
9 9 10 9 10 10 11 12 14 15 13 11 10 9 8 9 9 5 5 6 7 7 7 8 8 8 8 8 9 9 7 8 7 7 7 7 7 6 5 4 3 2 2 1
9 9 9 9 10 11 11 13 14 13 12 12 11 10 9 8 5 5 6 6 7 7 7 7 8 8 7 6 7 6 7 5 5 5 6 6 4 3 2 2 2 2 2 1
10 10 10 10 10 10 10 10 10 12 12 12 11 10 10 5 4 5 5 6 6 7 7 7 8 7 6 5 6 8 6 4 4 3 4 4 2 1 1 1 1 1 0 -0
10 10 9 10 9 10 9 10 10 12 11 11 11 11 10 5 4 3 5 5 6 6 7 6 6 6 6 6 5 5 4 4 5 3 1 1 1 1 1 0 -0 -1 -1 -2
8 8 10 10 10 11 10 9 10 11 12 12 11 11 9 6 4 4 4 4 5 5 6 5 6 6 4 4 4 4 3 2 1 1 1 -0 -1 -1 -0 -1 -2 -2 -2 -3
8 9 8 9 9 9 8 9 10 11 10 11 11 7 6 7 5 5 4 5 5 5 4 4 5 5 4 4 4 3 1 1 2 1 0 -0 -1 -1 -2 -3 -3 -3 -4 -4
Height
1437 1441 1439 1437 1441 1437 1438 1437 1435 1434 1427 1432 1439 1441 1436 1433 1438 1440 1441 1444 1448 1453 1460 1466 1469 1470 1471 1475 1481 1490 1500 1508 1512 1515 1517 1517 1515 1516 1516 1519 1520 1523 1526 1527
1439 1439 1434 1435 1437 1438 1440 1440 1438 1431 1427 1430 1434 1436 1432 1430 1433 1435 1438 1441 1446 1450 1456 1463 1467 1469 1469 1472 1479 1489 1496 1503 1511 1507 1515 1512 1519 1516 1517 1513 1517 1518 1523 1529
1441 1437 1433 1433 1434 1438 1438 1440 1437 1435 1429 1427 1429 1439 1431 1431 1431 1434 1436 1437 1442 1444 1451 1458 1461 1462 1465 1469 1472 1480 1484 1488 1502 1500 1498 1514 1509 1516 1514 1512 1514 1517 1521 1526
1440 1431 1430 1428 1430 1433 1441 1432 1432 1432 1436 1445 1429 1457 1433 1431 1436 1436 1436 1436 1439 1444 1449 1452 1455 1458 1461 1463 1465 1464 1470 1479 1491 1496 1502 1506 1500 1513 1510 1513 1514 1515 1518 1523
1431 1425 1425 1429 1428 1428 1433 1425 1429 1429 1435 1436 1438 1451 1440 1431 1436 1434 1434 1434 1435 1439 1444 1447 1450 1453 1456 1457 1459 1464 1471 1478 1485 1491 1488 1486 1502 1506 1511 1513 1513 1511 1517 1526
1429 1425 1427 1425 1422 1423 1423 1425 1428 1434 1440 1455 1439 1441 1444 1432 1421 1427 1430 1430 1431 1434 1439 1444 1448 1451 1452 1454 1458 1464 1469 1474 1477 1479 1484 1488 1486 1493 1502 1509 1509 1510 1519 1525
1425 1423 1420 1420 1422 1420 1423 1431 1451 1454 1455 1456 1437 1443 1435 1417 1416 1413 1422 1426 1429 1433 1436 1441 1444 1446 1449 1451 1456 1462 1465 1468 1467 1470 1475 1482 1487 1493 1496 1505 1509 1513 1518 1525
1432 1428 1417 1415 1419 1423 1424 1429 1450 1447 1457 1449 1432 1440 1427 1412 1411 1412 1414 1418 1425 1430 1434 1437 1441 1445 1450 1454 1458 1460 1463 1462 1461 1467 1476 1480 1486 1494 1498 1505 1510 1514 1521 1526
1428 1420 1408 1409 1412 1417 1426 1431 1426 1437 1439 1444 1441 1426 1415 1413 1413 1414 1416 1422 1427 1429 1433 1437 1440 1443 1448 1451 1452 1456 1460 1464 1469 1475 1477 1476 1472 1495 1498 1505 1511 1516 1520 1520
1420 1424 1406 1411 1412 1414 1418 1421 1433 1442 1449 1448 1444 1437 1431 1417 1417 1420 1421 1421 1423 1427 1431 1435 1440 1444 1450 1451 1454 1459 1461 1467 1473 1475 1481 1482 1486 1494 1500 1507 1511 1515 1516 1520
1418 1422 1416 1412 1417 1419 1424 1429 1433 1438 1448 1455 1462 1443 1422 1421 1413 1414 1414 1411 1413 1418 1424 1431 1439 1445 1452 1456 1459 1462 1463 1469 1473 1478 1482 1487 1489 1494 1502 1509 1512 1513 1516 1518
1414 1421 1424 1415 1405 1406 1414 1422 1428 1446 1449 1451 1454 1445 1413 1414 1411 1406 1403 1405 1408 1410 1418 1428 1439 1444 1449 1454 1458 1464 1465 1468 1472 1476 1480 1484 1487 1493 1504 1508 1511 1512 1513 1514
1416 1418 1426 1418 1414 1408 1413 1416 1421 1431 1440 1445 1454 1441 1409 1407 1408 1403 1398 1401 1404 1412 1419 1426 1438 1444 1447 1452 1456 1462 1464 1467 1471 1476 1480 1484 1490 1495 1503 1508 1510 1510 1509 1509
1411 1423 1421 1426 1419 1415 1420 1416 1418 1428 1444 1438 1437 1428 1418 1413 1411 1404 1396 1400 1409 1414 1419 1427 1436 1443 1447 1450 1452 1457 1463 1468 1474 1482 1486 1490 1496 1500 1505 1507 1506 1506 1506 1505
1416 1420 1420 1405 1408 1405 1411 1410 1417 1420 1421 1428 1427 1431 1426 1422 1419 1414 1411 1401 1410 1418 1422 1428 1434 1439 1443 1452 1449 1456 1464 1472 1479 1482 1486 1491 1496 1499 1501 1503 1504 1504 1503 1501
1419 1416 1413 1410 1406 1405 1412 1408 1411 1416 1422 1426 1430 1429 1423 1422 1419 1420 1420 1412 1412 1422 1423 1429 1435 1443 1446 1444 1456 1461 1466 1471 1476 1480 1485 1491 1494 1499 1501 1501 1501 1503 1500 1499
1426 1421 1424 1415 1407 1406 1417 1408 1409 1413 1410 1416 1426 1417 1423 1425 1425 1429 1428 1426 1419 1420 1426 1431 1437 1444 1448 1453 1457 1461 1466 1468 1476 1481 1488 1491 1494 1496 1498 1497 1498 1500 1498 1498
1424 1420 1425 1424 1412 1415 1400 1396 1395 1401 1403 1409 1413 1419 1421 1427 1426 1428 1436 1433 1425 1426 1430 1436 1440 1444 1450 1452 1458 1455 1471 1470 1476 1479 1485 1489 1490 1494 1496 1496 1496 1496 1496 1494
1422 1419 1427 1430 1423 1407 1398 1398 1398 1399 1412 1410 1413 1421 1423 1420 1421 1428 1442 1439 1436 1433 1436 1441 1444 1448 1453 1457 1461 1467 1474 1478 1481 1483 1487 1491 1491 1491 1492 1494 1492 1495 1492 1493
1419 1422 1425 1427 1423 1419 1408 1398 1397 1399 1418 1412 1414 1416 1419 1421 1425 1434 1443 1446 1445 1446 1447 1449 1453 1457 1461 1466 1469 1473 1477 1481 1483 1487 1489 1489 1490 1489 1491 1495 1494 1493 1492 1493
1421 1424 1425 1425 1424 1416 1402 1398 1395 1407 1407 1405 1406 1409 1414 1425 1427 1437 1443 1447 1447 1450 1454 1457 1462 1463 1469 1472 1475 1477 1478 1482 1485 1487 1488 1489 1490 1491 1494 1494 1493 1494 1493 1494
1421 1426 1426 1425 1425 1419 1403 1399 1399 1396 1390 1394 1406 1410 1415 1422 1430 1438 1444 1449 1449 1453 1458 1464 1465 1468 1472 1476 1478 1479 1481 1485 1489 1490 1489 1489 1492 1494 1494 1494 1494 1495 1494 1492
1422 1421 1421 1420 1419 1410 1408 1408 1399 1391 1394 1399 1403 1413 1419 1427 1436 1438 1443 1449 1453 1457 1461 1466 1469 1471 1476 1479 1481 1482 1484 1489 1488 1490 1491 1491 1494 1495 1494 1494 1495 1495 1493 1493
1421 1419 1420 1416 1416 1412 1410 1403 1399 1392 1393 1395 1402 1409 1416 1425 1435 1440 1443 1451 1456 1460 1463 1469 1472 1475 1477 1480 1482 1484 1485 1487 1491 1493 1493 1494 1496 1495 1493 1495 1496 1494 1493 1492
1428 1422 1416 1413 1412 1408 1407 1407 1403 1399 1400 1404 1408 1412 1418 1426 1437 1442 1448 1455 1459 1462 1466 1473 1475 1476 1478 1481 1484 1486 1488 1490 1493 1495 1495 1496 1498 1497 1495 1497 1496 1497 1496 1495
1425 1425 1424 1418 1416 1416 1413 1409 1406 1405 1407 1409 1409 1420 1428 1430 1437 1444 1451 1457 1461 1466 1471 1475 1476 1478 1480 1483 1486 1489 1491 1494 1495 1496 1497 1498 1498 1497 1496 1498 1498 1498 1497 1496
Wind_Speed
9 5 12 14 6 8 4 3 3 6 6 6 4 6 7 6 8 12 17 22 25 29 26 24 23 26 28 28 26 28 24 20 17 21 28 32 25 26 21 18 15 15 14 15
2 7 5 7 6 7 8 3 3 3 3 4 1 4 7 7 5 22 23 25 30 31 31 31 30 27 29 26 26 20 19 17 27 11 14 23 27 25 22 18 21 16 16 18
2 6 11 8 8 9 8 4 2 2 3 1 2 4 3 2 5 11 22 30 31 39 42 37 35 34 34 32 30 29 29 24 45 35 34 33 29 23 22 24 22 20 21 19
7 6 11 7 8 10 6 6 6 5 3 3 3 3 4 5 4 2 11 24 33 34 33 32 32 31 30 33 35 31 43 52 49 54 44 53 31 23 22 22 24 22 15 11
5 3 2 5 3 3 4 8 8 5 2 1 2 5 6 8 4 9 12 22 31 35 35 35 33 29 27 30 33 31 29 33 31 31 44 39 29 28 29 25 21 17 14 9
6 6 2 4 5 7 7 4 3 4 3 2 5 5 4 6 9 4 13 21 29 33 30 33 33 30 30 32 37 38 34 32 27 25 23 41 36 33 30 28 20 14 14 14
3 4 4 4 1 4 3 6 2 3 1 5 3 5 8 3 5 8 15 24 33 32 33 36 35 32 33 37 39 39 29 30 31 26 28 30 27 25 25 21 18 15 17 15
1 2 8 5 4 5 4 5 4 5 5 2 2 5 5 5 8 12 22 33 33 38 39 37 34 33 33 33 31 30 29 33 29 27 34 33 25 27 22 25 20 19 17 14
2 4 3 7 6 4 1 2 2 5 1 4 3 5 4 6 3 5 14 18 27 33 34 34 32 29 22 26 30 28 19 22 29 37 35 34 26 25 23 22 22 22 18 12
3 4 3 2 4 2 4 7 1 3 3 3 4 4 5 1 6 5 6 17 29 34 33 33 30 28 23 20 26 27 29 35 28 37 30 26 28 25 25 26 30 24 17 13
3 2 4 6 4 5 3 0 5 5 3 4 1 5 1 8 7 11 14 29 33 37 39 35 33 30 28 24 31 28 33 28 30 27 24 23 24 23 29 32 26 22 18 13
4 3 2 7 4 7 6 6 5 4 2 2 3 5 1 6 8 11 16 30 35 36 40 37 32 29 31 32 29 26 25 26 29 27 30 24 25 30 33 29 25 20 14 11
4 2 2 2 5 4 5 4 5 6 3 4 4 5 3 11 11 18 18 23 32 30 34 34 30 31 34 31 29 29 30 33 34 35 36 32 30 33 34 28 21 15 12 10
5 3 3 5 5 5 1 5 4 5 3 4 5 6 10 13 13 15 12 19 23 27 28 27 28 30 31 33 31 30 36 36 38 37 34 32 30 28 23 19 15 12 9 11
4 5 5 4 8 10 9 8 9 9 5 6 5 3 5 7 6 7 8 31 30 27 29 27 26 30 32 30 35 39 38 38 36 32 29 28 24 21 18 13 10 9 11 14
5 3 2 2 4 14 14 9 11 7 4 5 7 4 2 7 13 14 11 23 28 26 28 27 26 29 32 34 38 40 42 38 36 34 30 27 23 18 13 10 8 11 13 16
4 3 4 3 4 6 3 7 13 6 5 7 7 6 9 8 12 15 12 14 28 33 34 34 35 33 36 42 42 39 34 32 28 26 23 21 16 13 10 8 8 11 12 13
4 2 2 3 5 1 4 1 9 7 5 8 11 10 10 11 19 20 11 12 27 32 34 34 35 37 40 42 41 35 35 34 31 29 22 17 14 8 6 6 8 8 9 10
13 2 4 2 2 4 4 4 2 5 2 7 18 12 9 18 28 6 4 15 24 32 34 34 35 36 35 36 34 35 33 29 25 21 16 12 9 6 6 7 7 8 8 10
12 1 4 1 0 2 5 4 4 5 3 9 16 16 15 10 9 5 19 24 30 32 32 32 32 32 33 32 32 32 28 23 20 15 12 8 5 3 3 3 3 5 6 6
4 3 4 1 3 5 5 6 7 5 6 27 33 33 29 6 1 26 31 31 34 35 35 33 31 31 27 25 24 23 21 18 13 9 6 4 1 2 1 2 3 5 6 6
2 3 2 1 2 2 13 13 3 5 19 38 31 30 27 16 37 40 36 34 34 33 30 27 26 24 20 15 12 14 14 13 10 7 6 5 5 4 4 3 5 5 6 6
2 1 1 3 3 6 15 11 17 14 12 26 31 35 29 42 37 41 37 32 30 29 27 23 21 21 19 17 14 14 10 7 7 7 8 7 7 6 6 6 6 7 8 8
4 1 2 2 3 5 10 26 17 3 7 23 31 31 36 42 37 35 36 32 29 26 24 21 21 21 20 16 14 12 12 11 10 9 11 10 8 7 7 7 7 9 10 12
5 7 3 3 3 6 7 25 8 11 15 18 20 27 35 41 35 39 38 34 29 26 22 19 18 18 19 16 15 14 13 12 13 13 13 11 9 7 7 7 7 8 10 12
3 4 3 2 6 6 8 16 5 13 19 26 29 30 34 40 43 39 35 31 28 24 22 20 18 17 17 16 16 15 15 13 13 14 14 12 9 8 8 7 7 8 9 10
Wind_Direction
200 198 208 213 230 276 5 129 166 180 228 185 168 167 223 244 161 200 208 187 196 200 185 178 171 175 182 182 174 186 196 216 220 230 243 231 226 215 199 192 205 205 216 227
175 225 219 213 209 238 274 296 266 261 270 171 102 188 216 199 169 180 202 201 192 193 189 190 186 175 167 175 174 173 217 219 244 246 296 240 215 195 195 218 211 207 225 234
302 277 234 230 200 217 238 207 264 221 312 227 99 334 172 66 82 183 202 211 196 198 198 195 198 201 205 210 207 233 256 248 246 235 260 285 222 211 203 208 202 208 215 234
250 211 203 213 216 198 230 208 239 288 55 159 104 230 207 159 95 102 180 198 199 186 196 204 209 212 220 227 233 229 224 229 237 231 247 246 258 246 234 214 215 209 213 213
257 172 89 247 238 164 219 182 198 211 162 101 328 98 269 126 172 190 205 199 208 213 210 209 216 218 216 219 223 220 220 218 233 241 220 218 208 228 230 221 206 207 215 198
245 292 270 209 217 198 244 212 67 62 114 69 217 116 284 190 194 156 200 208 204 208 206 206 207 208 216 219 218 212 220 219 225 227 210 204 197 209 215 230 211 220 184 173
291 206 215 193 250 195 145 97 64 61 61 213 225 101 240 252 218 180 179 202 205 206 207 202 206 215 214 210 214 222 231 230 242 221 216 191 206 212 215 215 235 202 174 177
225 315 170 177 185 176 176 139 148 160 179 184 272 207 241 223 190 223 194 193 200 204 212 216 218 216 209 208 214 217 220 231 235 211 179 190 200 229 205 233 202 171 178 187
227 268 152 169 150 151 176 134 194 104 23 72 240 305 282 151 107 151 178 185 205 209 211 213 214 222 206 210 210 194 201 201 190 183 187 185 203 216 212 191 173 179 185 192
276 311 153 115 72 251 105 163 117 9 121 155 296 291 224 176 186 150 170 201 209 214 215 218 221 213 183 186 184 195 188 188 187 194 202 198 189 200 186 175 180 185 189 203
212 112 325 106 202 162 100 273 63 104 76 137 78 270 15 285 230 195 201 202 207 208 209 213 212 201 191 174 169 169 178 188 189 190 196 185 171 176 174 179 183 189 196 207
227 135 285 207 213 165 145 169 121 112 203 171 160 273 206 334 288 230 222 202 211 209 203 202 203 195 193 188 187 190 188 191 196 195 172 178 185 180 177 183 187 190 202 220
214 312 360 64 40 16 104 160 116 107 96 190 137 263 323 3 350 318 233 197 205 189 191 197 193 190 184 187 193 203 203 198 184 172 172 169 164 170 179 184 188 198 216 244
136 129 231 186 207 139 283 163 175 130 126 176 220 299 350 351 348 348 122 158 158 160 171 180 185 190 189 187 186 179 168 166 160 157 152 151 158 167 176 187 200 218 250 280
58 183 205 189 248 152 249 183 167 195 193 164 204 209 321 4 10 23 81 112 122 128 145 161 172 174 177 166 167 160 154 149 148 154 162 164 167 179 188 197 217 248 277 296
356 311 342 211 122 179 207 204 189 207 165 101 149 178 82 76 66 52 55 113 112 118 128 138 153 154 158 168 152 146 147 153 163 163 166 166 172 179 191 211 248 278 291 302
299 342 24 301 327 124 164 191 180 193 178 138 196 162 123 88 69 32 34 87 105 108 120 129 134 132 139 150 149 149 157 164 167 170 175 172 172 187 201 228 258 283 297 299
288 321 81 286 337 172 218 325 205 146 163 116 111 128 128 138 111 81 58 85 110 128 134 141 147 150 149 153 157 159 171 165 165 166 165 168 182 197 224 255 279 296 303 307
209 234 9 297 279 297 360 26 123 134 117 135 144 138 141 114 93 82 113 130 130 137 138 138 143 148 148 149 149 155 154 153 154 156 164 170 182 208 244 271 291 297 305 310
171 315 155 304 348 184 259 322 359 125 160 155 161 161 149 154 162 141 145 135 131 131 132 133 135 135 137 137 144 147 144 153 155 158 167 177 189 221 265 298 322 346 355 341
126 102 170 167 250 282 247 277 311 144 221 163 168 167 157 156 250 146 141 133 130 126 126 130 132 130 130 139 148 147 145 145 146 148 139 129 127 100 88 45 36 5 346 319
209 148 178 109 328 271 358 330 215 309 158 167 170 169 154 155 140 149 144 140 137 135 134 138 138 138 138 139 153 130 134 130 125 124 130 124 130 119 98 46 31 16 4 348
68 68 220 192 240 293 352 321 335 300 177 162 153 161 157 141 143 147 146 144 142 144 145 147 147 144 142 145 153 157 129 116 108 132 125 127 122 112 82 57 41 27 26 21
326 238 236 322 235 305 14 14 14 43 144 150 147 148 153 144 145 144 148 149 148 148 145 147 144 142 139 143 151 148 136 151 162 139 121 115 118 103 77 55 46 40 39 33
245 334 290 291 28 26 348 5 8 112 139 132 143 160 159 151 146 148 150 147 144 141 141 146 147 139 133 133 133 132 134 132 135 129 120 118 114 101 82 64 59 51 41 30
313 357 12 309 355 305 295 350 44 136 151 162 154 150 152 159 152 153 149 146 145 144 147 150 143 138 132 135 133 132 130 129 126 119 109 103 96 84 75 71 63 52 52 43